Weather History for KDLN - March, 2014

Change the Weather History Date:

Wednesday, March 19, 2014

  Actual Average Record
Temperature  
Mean Temperature 35 °F 35 °F  
Max Temperature 49 °F 47 °F 64 °F (1999)
Min Temperature 20 °F 24 °F -1 °F (1955)
Degree Days  
Heating Degree Days 30    
Month to date heating degree days 560  
Since 1 July heating degree days 6340  
Cooling Degree Days 0    
Month to date cooling degree days 0  
Year to date cooling degree days 0  
Moisture  
Dew Point 10 °F    
Average Humidity 42    
Maximum Humidity 68    
Minimum Humidity 15    
Precipitation  
Precipitation 0.00 in 0.02 in 0.26 in (2012)
Month to date precipitation 0.23 0.28  
Year to date precipitation 0.46 0.80  
Snow  
Snow 0.00 in - - ()
Snow Depth 0.00 in    
Sea Level Pressure  
Sea Level Pressure 30.04 in    
Wind  
Wind Speed 12 mph (SSW)    
Max Wind Speed 28 mph    
Max Gust Speed 36 mph    
Visibility 10 miles    
Events      
T = Trace of Precipitation, MM = Missing Value Source: NWS Daily Summary

Daily Weather History Graph

Daily Weather History Graph

Search for Another Location

Airport or City:

Trip Planner

Search our weather history database for the weather conditions in past years. The results will help you decide how hot, cold, wet, or windy it might be!

Date:

Astronomy

Mar. 19, 2014 Rise Set
Actual Time 7:35 AM MDT 7:41 PM MDT
Civil Twilight 7:05 AM MDT 8:10 PM MDT
Nautical Twilight 6:31 AM MDT 8:45 PM MDT
Astronomical Twilight 5:55 AM MDT 9:20 PM MDT
Moon 11:14 PM MDT (3/19) 8:54 AM MDT (3/19)
Length of Visible Light 13h 05m
Length of Day
12h 06m
Waning Gibbous, 91% of the Moon is Illuminated
Mar 19
Waning Gibbous
Mar 23
Last Quarter
Mar 30
New
Apr 7
First Quarter
Apr 15
Full

Hourly Weather History & Observations

Time (MDT) Temp. Windchill Dew Point Humidity Pressure Visibility Wind Dir Wind Speed Gust Speed Precip Events Conditions
12:53 AM 26.1 °F 14.5 °F 12.9 °F 58% 30.15 in 10.0 mi SSW 13.8 mph - N/A   Clear
1:53 AM 24.1 °F 12.0 °F 12.0 °F 60% 30.16 in 10.0 mi South 13.8 mph - N/A   Clear
2:53 AM 21.9 °F 13.4 °F 12.0 °F 66% 30.16 in 10.0 mi SW 6.9 mph - N/A   Clear
3:53 AM 23.0 °F 13.9 °F 12.0 °F 63% 30.14 in 10.0 mi WSW 8.1 mph - N/A   Clear
4:53 AM 24.1 °F 12.5 °F 12.0 °F 60% 30.12 in 10.0 mi South 12.7 mph - N/A   Clear
5:53 AM 21.9 °F 10.4 °F 10.9 °F 63% 30.14 in 10.0 mi South 11.5 mph - N/A   Clear
6:53 AM 21.0 °F 13.4 °F 12.0 °F 68% 30.16 in 10.0 mi West 5.8 mph - N/A   Clear
7:53 AM 21.0 °F - 12.0 °F 68% 30.19 in 10.0 mi Calm Calm - N/A   Clear
8:53 AM 25.0 °F 17.1 °F 14.0 °F 63% 30.19 in 10.0 mi SSW 6.9 mph - N/A   Clear
9:53 AM 28.9 °F 17.7 °F 12.9 °F 51% 30.16 in 10.0 mi SSW 15.0 mph - N/A   Clear
10:53 AM 35.1 °F 27.9 °F 12.9 °F 40% 30.11 in 10.0 mi WSW 9.2 mph - N/A   Clear
11:53 AM 37.9 °F 29.6 °F 10.0 °F 32% 30.11 in 10.0 mi SSW 13.8 mph - N/A   Clear
12:53 PM 41.0 °F 32.5 °F 7.0 °F 25% 30.03 in 10.0 mi SSW 17.3 mph - N/A   Clear
1:53 PM 44.1 °F 36.5 °F 5.0 °F 20% 29.99 in 10.0 mi SSW 17.3 mph 24.2 mph N/A   Clear
2:53 PM 46.0 °F 38.8 °F 7.0 °F 20% 29.95 in 10.0 mi SSW 18.4 mph 26.5 mph N/A   Clear
3:53 PM 46.9 °F - 7.0 °F 20% 29.92 in 10.0 mi South 16.1 mph 26.5 mph N/A   Clear
4:53 PM 48.0 °F - 3.0 °F 16% 29.90 in 10.0 mi WSW 20.7 mph 28.8 mph N/A   Clear
5:53 PM 48.9 °F - 5.0 °F 17% 29.90 in 10.0 mi WSW 20.7 mph 32.2 mph N/A   Mostly Cloudy
6:53 PM 46.0 °F 39.6 °F 8.1 °F 21% 29.92 in 10.0 mi WNW 15.0 mph - N/A   Mostly Cloudy
7:53 PM 39.9 °F 36.7 °F 9.0 °F 28% 29.94 in 10.0 mi SW 4.6 mph - N/A   Partly Cloudy
8:53 PM 37.9 °F 30.9 °F 10.0 °F 32% 29.94 in 10.0 mi South 10.4 mph - N/A   Clear
9:53 PM 35.1 °F 27.4 °F 12.0 °F 39% 29.96 in 10.0 mi SSW 10.4 mph - N/A   Clear
10:53 PM 36.0 °F 29.0 °F 10.9 °F 36% 29.93 in 10.0 mi South 9.2 mph - N/A   Mostly Cloudy
11:53 PM 37.0 °F 29.8 °F 10.9 °F 34% 29.90 in 10.0 mi South 10.4 mph - N/A   Mostly Cloudy